sat.trackr.live / text

‹ back to catalog

STARLINK-32818

NORAD 63036 · 2025-034H

PAYLOAD ACTIVE UNKNOWN

§ Identity

Operator
Country
US
Launch date
2025-02-18
Launch site
AFETR
Launch vehicle
Mass (kg)
RCS (m²)

Purposes: comms

External: N2YO · Heavens-Above · Gunter

§ Orbital elements

Epoch: 2026-09-21T18:48:47.789280Z

Period
94.01 min
Inclination
53.1613°
Eccentricity
0.0001178
Mean motion
15.31711847 rev/d
Perigee alt
469.9 km
Apogee alt
471.5 km
Semi-major
6,848.8 km
B*
5.8743e-4
RAAN
67.0157°
Arg perigee
64.9035°
Mean anomaly
295.2089°
Rev number
8,911

§ Raw data

STARLINK-328181 63036U 25034H   26264.78388645  .00017914  00000+0  58743-3 0  99922 63036  53.1613  67.0157 0001178  64.9035 295.2089 15.31711847 89111

JSON: /api/v1/satellites/63036 · /tle

For live sub-satellite position, see the globe view (requires WebGL).

§ Visibility from observer

Set your observer location to see the next 7 days of passes ≥ 10°. The values pass through the URL so the page stays shareable.

No JS? Fill the form by hand. The geolocation button needs JavaScript.